Weather in Krasnyy Kommunar

Russia / Orenburg Oblast     51°57′34″N   55°22′00″E
temp.,
°C
wind,
m/s
gust,
m/s
humid.,
%
clouds,
%
prec.,
mm/h
press.,
hPa
HPBL,
m
28 january, thu
thu2823:00−9se499319 0.0 1032175
02:00−10se49900 0.0 1031179
05:00−12se479119 0.0 1030102
08:00−12se5109080 0.0 1030175
11:00−10se5118884 0.0 1028288
14:00−8se61186100 0.0 1027356
17:00−7se41089100 0.0 1026289
20:00−8se41089100 0.0 1025229
29 january, fri
fri2923:00−8se51187100 0.0 1025251
02:00−9se51186100 0.0 1024251
05:00−9ese41186100 0.0 1022245
08:00−8se51384100 0.0 1021282
11:00−7se51283100 0.0 1020344
14:00−4se51281100 0.0 1018455
17:00−4se71484100 0.0 1016489
20:00−4se71386100 0.1 1016479
30 january, sat
sat3023:00−4se71393100 1.0 1015465
02:00−4se51194100 0.3 1014485
05:00−4se4896100 0.8 1012355
08:00−3sse3697100 0.6 1012234
11:00−2sse3497100 0.8 1013196
14:00−1ssw249783 0.0 1014276
17:00−1wsw249791 0.0 1015245
20:00−2sw3498100 0.0 1016266
31 january, sun
sun3123:00−6s349698 0.0 101737
02:00−7ssw3389100 0.0 101830
05:00−8s238995 0.0 101922
08:00−9sse128978 0.0 102021
11:00−8sse239086 0.0 102055
14:00−4se239093 0.0 1020136
17:00−5ese339064 0.0 101944
20:00−7se46890 0.0 101993
1 february, mon
mon123:00−6se514870 0.0 1018308
02:00−5sse6129798 0.0 1016522
05:00−1sse8149099 0.1 1015631
08:00−5s61288100 0.0 1015517
11:00−4ssw61194100 0.4 1016458
14:00−1sw71191100 0.1 1018902
17:00−4wsw5109296 0.1 1020343
20:00−9wsw479641 0.0 1023116